FW7539 Weather Reports


Display with metric or nautical units.
time (UTC)temp
F
wind
direction
speed
MPH
gust
MPH
rain 1hr
in
rain 24hr
in
rain mn
in
humidity
%
barometer
mb
20260901190508 93 250 2.0 7.0 0.00 0.00 0.00 52 1017.0
20260901185947 92 181 2.0 8.0 0.00 0.00 0.00 52 1017.1
20260901185447 92 209 3.0 8.0 0.00 0.00 0.00 52 1017.1
20260901184947 92 252 3.0 9.0 0.00 0.00 0.00 52 1017.2
20260901184447 92 242 3.0 9.0 0.00 0.00 0.00 51 1017.3
20260901184008 92 197 3.0 8.0 0.00 0.00 0.00 51 1017.3
20260901183447 92 226 2.0 7.0 0.00 0.00 0.00 55 1017.4
20260901182947 92 261 1.0 5.0 0.00 0.00 0.00 54 1017.3
20260901182447 92 255 2.0 5.0 0.00 0.00 0.00 53 1017.3
20260901182008 91 224 2.0 6.0 0.00 0.00 0.00 52 1017.3
20260901181447 91 218 2.0 8.0 0.00 0.00 0.00 54 1017.3
20260901180947 91 240 3.0 8.0 0.00 0.00 0.00 55 1017.4
20260901180447 91 179 3.0 8.0 0.00 0.00 0.00 54 1017.5
20260901175947 91 152 3.0 8.0 0.00 0.00 0.00 53 1017.5
20260901175447 91 190 3.0 8.0 0.00 0.00 0.00 51 1017.5
20260901175009 91 249 2.0 5.0 0.00 0.00 0.00 53 1017.6
20260901174508 91 259 2.0 8.0 0.00 0.00 0.00 53 1017.5
20260901174008 91 241 2.0 8.0 0.00 0.00 0.00 56 1017.6
20260901173448 91 251 2.0 8.0 0.00 0.00 0.00 58 1017.6
20260901172947 91 236 2.0 8.0 0.00 0.00 0.00 55 1017.7
20260901172447 91 202 2.0 5.0 0.00 0.00 0.00 55 1017.8
20260901172008 91 218 2.0 8.0 0.00 0.00 0.00 56 1017.8
20260901171447 90 178 3.0 11.0 0.00 0.00 0.00 58 1017.8
20260901170947 90 151 3.0 11.0 0.00 0.00 0.00 56 1017.8
20260901170447 90 202 2.0 8.0 0.00 0.00 0.00 57 1017.8
20260901170009 90 229 3.0 8.0 0.00 0.00 0.00 59 1017.8
20260901165447 90 203 3.0 10.0 0.00 0.00 0.00 57 1017.9
20260901165008 90 164 3.0 10.0 0.00 0.00 0.00 58 1018.0
20260901164447 90 187 2.0 8.0 0.00 0.00 0.00 59 1018.0
20260901164009 90 236 2.0 7.0 0.00 0.00 0.00 59 1018.0
20260901163448 90 214 2.0 7.0 0.00 0.00 0.00 59 1018.0
20260901162947 89 220 2.0 7.0 0.00 0.00 0.00 63 1018.2
20260901162447 89 233 2.0 6.0 0.00 0.00 0.00 61 1018.1
20260901161947 89 206 2.0 8.0 0.00 0.00 0.00 62 1018.0
20260901161447 88 196 3.0 8.0 0.00 0.00 0.00 60 1018.1
20260901160947 88 177 3.0 9.0 0.00 0.00 0.00 63 1018.2
20260901160447 88 173 3.0 9.0 0.00 0.00 0.00 61 1018.2
20260901155947 88 199 2.0 7.0 0.00 0.00 0.00 62 1018.2
20260901155447 88 221 3.0 9.0 0.00 0.00 0.00 62 1018.2
20260901154948 88 242 3.0 9.0 0.00 0.00 0.00 62 1018.3
20260901154447 88 235 2.0 9.0 0.00 0.00 0.00 61 1018.3
20260901154008 88 208 2.0 6.0 0.00 0.00 0.00 61 1018.3
20260901153447 87 209 2.0 7.0 0.00 0.00 0.00 63 1018.5
20260901152947 87 207 2.0 7.0 0.00 0.00 0.00 63 1018.5
20260901152448 87 214 2.0 7.0 0.00 0.00 0.00 64 1018.4
20260901151948 86 234 2.0 6.0 0.00 0.00 0.00 64 1018.5
20260901151447 86 237 3.0 10.0 0.00 0.00 0.00 66 1018.5
20260901150947 85 243 3.0 10.0 0.00 0.00 0.00 65 1018.5
20260901150509 85 229 3.0 8.0 0.00 0.00 0.00 66 1018.5
20260901145947 84 225 2.0 8.0 0.00 0.00 0.00 65 1018.4
20260901145448 84 237 2.0 6.0 0.00 0.00 0.00 67 1018.3
20260901145008 84 228 2.0 8.0 0.00 0.00 0.00 68 1018.3
20260901144447 84 236 1.0 8.0 0.00 0.00 0.00 68 1018.4
20260901143947 83 257 1.0 7.0 0.00 0.00 0.00 69 1018.3
20260901143447 83 254 2.0 7.0 0.00 0.00 0.00 68 1018.3
20260901142947 83 251 2.0 8.0 0.00 0.00 0.00 70 1018.5
20260901142448 83 261 2.0 8.0 0.00 0.00 0.00 69 1018.6
20260901141948 82 259 2.0 7.0 0.00 0.00 0.00 69 1018.8
20260901141448 82 243 1.0 5.0 0.00 0.00 0.00 72 1018.7
20260901140947 82 260 1.0 5.0 0.00 0.00 0.00 71 1018.8
20260901140447 82 253 2.0 4.0 0.00 0.00 0.00 71 1018.7
20260901140008 81 243 2.0 10.0 0.00 0.00 0.00 72 1018.7
20260901135447 81 257 2.0 10.0 0.00 0.00 0.00 71 1018.8
20260901134947 81 260 2.0 8.0 0.00 0.00 0.00 71 1018.7
20260901134448 81 246 2.0 8.0 0.00 0.00 0.00 73 1018.6
20260901133947 80 247 2.0 6.0 0.00 0.00 0.00 73 1018.5
20260901133508 80 237 2.0 7.0 0.00 0.00 0.00 73 1018.5
20260901132947 80 230 2.0 7.0 0.00 0.00 0.00 74 1018.5
20260901132447 80 229 2.0 6.0 0.00 0.00 0.00 74 1018.4
20260901132008 79 225 1.0 4.0 0.00 0.00 0.00 75 1018.4
20260901131448 79 229 1.0 4.0 0.00 0.00 0.00 76 1018.6
20260901131009 78 228 1.0 4.0 0.00 0.00 0.00 76 1018.4
20260901130448 78 186 1.0 4.0 0.00 0.00 0.00 77 1018.4
20260901125947 77 154 1.0 4.0 0.00 0.00 0.00 77 1018.5
20260901125447 77 171 1.0 3.0 0.00 0.00 0.00 78 1018.6
20260901125008 77 204 1.0 3.0 0.00 0.00 0.00 78 1018.7
20260901124447 76 200 0.0 2.0 0.00 0.00 0.00 79 1018.7
20260901123947 76 213 1.0 3.0 0.00 0.00 0.00 79 1018.7
20260901123447 76 211 1.0 3.0 0.00 0.00 0.00 79 1018.7
20260901122947 75 201 1.0 2.0 0.00 0.00 0.00 80 1018.8
20260901122449 75 205 1.0 2.0 0.00 0.00 0.00 81 1018.8
20260901121948 74 212 0.0 2.0 0.00 0.00 0.00 81 1018.7
20260901121447 74 224 0.0 2.0 0.00 0.00 0.00 82 1018.7
20260901120947 74 243 0.0 2.0 0.00 0.00 0.00 83 1018.7
20260901120508 73 243 0.0 2.0 0.00 0.00 0.00 83 1018.6
20260901115947 73 0 0.0 0.0 0.00 0.00 0.00 84 1018.5
20260901115447 73 0 0.0 0.0 0.00 0.00 0.00 84 1018.4
20260901114947 72 234 0.0 3.0 0.00 0.00 0.00 84 1018.3
20260901114447 72 234 0.0 3.0 0.00 0.00 0.00 84 1018.2
20260901113947 72 234 0.0 2.0 0.00 0.00 0.00 84 1018.2
20260901113448 72 234 0.0 2.0 0.00 0.00 0.00 84 1018.2
20260901112948 72 234 0.0 2.0 0.00 0.00 0.00 85 1018.1
20260901112448 72 234 0.0 2.0 0.00 0.00 0.00 85 1018.0
20260901111947 72 234 0.0 1.0 0.00 0.00 0.00 85 1018.0
20260901111447 72 234 0.0 1.0 0.00 0.00 0.00 85 1017.9
20260901110947 72 0 0.0 0.0 0.00 0.00 0.00 85 1017.9
20260901110508 72 0 0.0 0.0 0.00 0.00 0.00 85 1017.8
20260901105947 72 0 0.0 0.0 0.00 0.00 0.00 85 1017.7
20260901105448 72 0 0.0 0.0 0.00 0.00 0.00 85 1017.7
20260901105009 72 0 0.0 0.0 0.00 0.00 0.00 85 1017.7
20260901104448 72 0 0.0 0.0 0.00 0.00 0.00 85 1017.7
20260901103948 72 0 0.0 0.0 0.00 0.00 0.00 85 1017.7
20260901103447 72 0 0.0 0.0 0.00 0.00 0.00 85 1017.6
20260901102947 72 0 0.0 0.0 0.00 0.00 0.00 85 1017.6
20260901102448 72 0 0.0 0.0 0.00 0.00 0.00 85 1017.5
20260901101947 72 0 0.0 0.0 0.00 0.00 0.00 85 1017.5
20260901101447 72 0 0.0 0.0 0.00 0.00 0.00 85 1017.5
20260901101008 72 0 0.0 0.0 0.00 0.00 0.00 85 1017.4
20260901100448 72 0 0.0 0.0 0.00 0.00 0.00 85 1017.5
20260901095948 72 0 0.0 0.0 0.00 0.00 0.00 85 1017.4
20260901095448 72 0 0.0 0.0 0.00 0.00 0.00 84 1017.4
20260901094948 72 0 0.0 0.0 0.00 0.00 0.00 85 1017.4
20260901094447 72 0 0.0 0.0 0.00 0.00 0.00 85 1017.4
20260901093947 72 0 0.0 0.0 0.00 0.00 0.00 84 1017.4
20260901093447 72 0 0.0 0.0 0.00 0.00 0.00 84 1017.3
20260901092947 72 0 0.0 0.0 0.00 0.00 0.00 84 1017.2
20260901092448 73 0 0.0 0.0 0.00 0.00 0.00 84 1017.2
20260901091948 73 0 0.0 0.0 0.00 0.00 0.00 84 1017.3
20260901091448 73 0 0.0 0.0 0.00 0.00 0.00 84 1017.2
20260901090948 73 0 0.0 0.0 0.00 0.00 0.00 84 1017.1
20260901090447 73 0 0.0 0.0 0.00 0.00 0.00 84 1017.1
20260901085948 73 0 0.0 0.0 0.00 0.00 0.00 84 1017.0
20260901085509 73 0 0.0 0.0 0.00 0.00 0.00 84 1017.0
20260901084947 73 0 0.0 0.0 0.00 0.00 0.00 84 1016.9
20260901084447 73 0 0.0 0.0 0.00 0.00 0.00 84 1016.9
20260901083947 73 0 0.0 0.0 0.00 0.00 0.00 84 1016.8
20260901083447 74 0 0.0 0.0 0.00 0.00 0.00 83 1016.8
20260901082947 74 0 0.0 0.0 0.00 0.00 0.00 83 1016.8
20260901082448 74 0 0.0 0.0 0.00 0.00 0.00 83 1016.8
20260901081947 74 0 0.0 0.0 0.00 0.00 0.00 83 1016.8
20260901081448 74 0 0.0 0.0 0.00 0.00 0.00 83 1016.8
20260901080948 74 0 0.0 0.0 0.00 0.00 0.00 82 1016.9
20260901080448 75 0 0.0 0.0 0.00 0.00 0.00 82 1016.9
20260901075948 75 0 0.0 0.0 0.00 0.00 0.00 82 1016.8
20260901075508 75 0 0.0 0.0 0.00 0.00 0.00 81 1016.9
20260901074948 75 0 0.0 0.0 0.00 0.00 0.00 81 1016.8
20260901074448 76 0 0.0 0.0 0.00 0.00 0.00 80 1016.7
20260901073947 76 0 0.0 0.0 0.00 0.00 0.00 79 1016.6
20260901073448 76 0 0.0 0.0 0.00 0.00 0.00 79 1016.6
20260901072948 77 0 0.0 0.0 0.00 0.00 0.00 78 1016.6
20260901072448 77 0 0.0 0.0 0.00 0.00 0.00 77 1016.5
20260901071947 78 0 0.0 0.0 0.00 0.00 0.00 77 1016.5
20260901071448 78 0 0.0 0.0 0.00 0.00 0.00 76 1016.5
20260901071009 78 0 0.0 0.0 0.00 0.00 0.00 76 1016.5
20260901070448 78 234 0.0 1.0 0.00 0.00 0.00 75 1016.4
20260901065948 79 234 0.0 1.0 0.00 0.00 0.00 75 1016.3
20260901065448 79 234 0.0 2.0 0.00 0.00 0.00 75 1016.4
20260901064948 79 249 1.0 3.0 0.00 0.00 0.00 74 1016.4
20260901064447 79 246 1.0 4.0 0.00 0.00 0.00 75 1016.3
20260901063947 79 249 1.0 4.0 0.00 0.00 0.00 75 1016.1
20260901063448 78 253 0.0 4.0 0.00 0.00 0.00 75 1016.2
20260901062948 78 205 0.0 2.0 0.00 0.00 0.00 75 1016.2
20260901062447 79 252 1.0 3.0 0.00 0.00 0.00 75 1016.1
20260901061948 79 288 1.0 4.0 0.00 0.00 0.00 75 1016.2
20260901061509 79 259 1.0 4.0 0.00 0.00 0.00 75 1016.4
20260901060947 78 221 1.0 4.0 0.00 0.00 0.00 76 1016.4
20260901060448 78 231 1.0 2.0 0.00 0.00 0.00 76 1016.4
20260901060009 78 245 1.0 2.0 0.00 0.00 0.00 77 1016.3
20260901055448 78 250 0.0 2.0 0.00 0.00 0.00 77 1016.4
20260901054948 78 255 0.0 1.0 0.00 0.00 0.00 77 1016.6
20260901054509 78 257 0.0 1.0 0.00 0.00 0.00 77 1016.7
20260901053948 78 254 0.0 2.0 0.00 0.00 0.00 77 1016.8
20260901053509 78 252 0.0 2.0 0.00 0.00 0.00 77 1016.9
20260901053009 78 250 0.0 1.0 0.00 0.00 0.00 78 1016.9
20260901052448 78 229 0.0 2.0 0.00 0.00 0.00 78 1016.9
20260901052009 78 242 1.0 3.0 0.00 0.00 0.00 78 1016.8
20260901051509 77 249 0.0 3.0 0.00 0.00 0.00 79 1016.8
20260901050948 77 241 0.0 2.0 0.00 0.00 0.00 80 1016.9
20260901050447 76 240 0.0 2.0 0.00 0.00 0.00 81 1017.0
20260901045948 76 240 0.0 2.0 0.00 0.00 0.00 81 1017.2
20260901045509 76 240 0.0 1.0 0.00 0.00 0.00 81 1017.2
20260901044948 76 240 0.0 1.0 0.00 0.00 0.00 81 1017.2
20260901044447 76 0 0.0 0.0 0.00 0.00 0.00 81 1017.3
20260901043947 76 0 0.0 0.0 0.00 0.00 0.00 81 1017.4
20260901043447 76 240 0.0 1.0 0.00 0.00 0.00 81 1017.4
20260901042948 76 240 0.0 1.0 0.00 0.00 0.00 81 1017.4
20260901042509 76 240 0.0 1.0 0.00 0.00 0.00 81 1017.4
20260901042009 76 240 0.0 1.0 0.00 0.00 0.00 82 1017.5
20260901041448 76 240 0.0 1.0 0.00 0.00 0.00 82 1017.5
20260901041009 76 240 0.0 1.0 0.00 0.00 0.00 82 1017.4
20260901040509 76 0 0.0 0.0 0.00 0.00 0.00 82 1017.4
20260901040009 76 0 0.0 0.0 0.00 0.00 0.00 82 1017.4
20260901035448 76 240 0.0 1.0 0.00 0.00 0.00 82 1017.5
20260901034948 76 240 0.0 1.0 0.00 0.00 0.00 82 1017.5
20260901034447 76 0 0.0 0.0 0.00 0.00 0.00 82 1017.5
20260901033948 76 0 0.0 0.0 0.00 0.00 0.00 81 1017.5
20260901033448 76 0 0.0 0.0 0.00 0.00 0.00 81 1017.5
20260901032948 76 0 0.0 0.0 0.00 0.00 0.00 81 1017.5
20260901032448 76 0 0.0 0.0 0.00 0.00 0.00 81 1017.5
20260901032009 76 0 0.0 0.0 0.00 0.00 0.00 81 1017.6
20260901031448 76 0 0.0 0.0 0.00 0.00 0.00 81 1017.7
20260901030948 77 0 0.0 0.0 0.00 0.00 0.00 80 1017.7
20260901030447 77 0 0.0 0.0 0.00 0.00 0.00 80 1017.7
20260901030009 77 0 0.0 0.0 0.00 0.00 0.00 80 1017.7
20260901025448 77 0 0.0 0.0 0.00 0.00 0.00 80 1017.7
20260901024948 77 0 0.0 0.0 0.00 0.00 0.00 80 1017.6
20260901024448 77 0 0.0 0.0 0.00 0.00 0.00 80 1017.7
20260901023948 77 0 0.0 0.0 0.00 0.00 0.00 79 1017.7
20260901023509 77 0 0.0 0.0 0.00 0.00 0.00 79 1017.7
20260901022947 77 0 0.0 0.0 0.00 0.00 0.00 79 1017.7
20260901022509 78 0 0.0 0.0 0.00 0.00 0.00 79 1017.6
20260901021948 78 0 0.0 0.0 0.00 0.00 0.00 79 1017.7
20260901021509 78 240 0.0 1.0 0.00 0.00 0.00 79 1017.6
20260901020948 78 240 0.0 1.0 0.00 0.00 0.00 78 1017.6
20260901020448 78 0 0.0 0.0 0.00 0.00 0.00 78 1017.6
20260901015947 78 0 0.0 0.0 0.00 0.00 0.00 78 1017.6
20260901015448 78 240 0.0 1.0 0.00 0.00 0.00 78 1017.6
20260901015009 78 240 0.0 1.0 0.00 0.00 0.00 77 1017.5
20260901014448 79 240 0.0 1.0 0.00 0.00 0.00 77 1017.5
20260901013948 79 0 0.0 0.0 0.00 0.00 0.00 77 1017.4
20260901013448 79 0 0.0 0.0 0.00 0.00 0.00 76 1017.4
20260901012948 79 0 0.0 0.0 0.00 0.00 0.00 76 1017.4
20260901012448 79 0 0.0 0.0 0.00 0.00 0.00 76 1017.4
20260901011947 80 0 0.0 0.0 0.00 0.00 0.00 76 1017.3
20260901011448 80 0 0.0 0.0 0.00 0.00 0.00 75 1017.2
20260901010948 80 0 0.0 0.0 0.00 0.00 0.00 75 1017.3
20260901010509 80 0 0.0 0.0 0.00 0.00 0.00 74 1017.3
20260901010009 81 0 0.0 0.0 0.00 0.00 0.00 73 1017.2
20260901005448 81 0 0.0 0.0 0.00 0.00 0.00 72 1017.1
20260901005008 82 0 0.0 0.0 0.00 0.00 0.00 72 1016.9
20260901004448 82 0 0.0 0.0 0.00 0.00 0.00 71 1016.8
20260901003948 83 240 0.0 1.0 0.00 0.00 0.00 69 1016.7
20260901003448 83 240 0.0 1.0 0.00 0.00 0.00 69 1016.7
20260901002947 84 0 0.0 0.0 0.00 0.00 0.00 67 1016.7
20260901002448 84 240 0.0 1.0 0.00 0.00 0.00 66 1016.5
20260901001948 84 240 0.0 1.0 0.00 0.00 0.00 65 1016.5
20260901001447 85 240 0.0 2.0 0.00 0.00 0.00 64 1016.4
20260901000948 85 239 0.0 2.0 0.00 0.00 0.00 65 1016.3
20260901000509 86 238 0.0 2.0 0.00 0.00 0.00 63 1016.3
20260831235948 86 238 1.0 4.0 0.00 0.00 0.00 63 1016.3
20260831235448 86 233 1.0 4.0 0.00 0.00 0.00 62 1016.3
20260831234948 87 218 0.0 3.0 0.00 0.00 0.00 61 1016.2
20260831234448 87 228 1.0 4.0 0.00 0.00 0.00 61 1016.2
20260831233948 87 224 1.0 4.0 0.00 0.00 0.00 60 1016.2
20260831233448 87 220 1.0 4.0 0.00 0.00 0.00 60 1016.1
20260831232948 87 217 1.0 4.0 0.00 0.00 0.00 59 1016.1
20260831232448 88 169 1.0 5.0 0.00 0.00 0.00 59 1016.0
20260831231948 88 157 1.0 5.0 0.00 0.00 0.00 59 1015.9
20260831231448 88 168 2.0 7.0 0.00 0.00 0.00 58 1016.0
20260831230948 89 172 3.0 7.0 0.00 0.00 0.00 57 1016.0
20260831230449 89 195 3.0 7.0 0.00 0.00 0.00 56 1016.0
20260831225948 89 205 2.0 5.0 0.00 0.00 0.00 57 1016.0
20260831225448 90 189 1.0 5.0 0.00 0.00 0.00 56 1016.1
20260831224948 90 184 2.0 6.0 0.00 0.00 0.00 55 1016.1
20260831224448 90 211 2.0 6.0 0.00 0.00 0.00 55 1016.1
20260831223948 90 226 1.0 5.0 0.00 0.00 0.00 55 1016.2
20260831223449 90 229 2.0 8.0 0.00 0.00 0.00 55 1016.2
20260831222948 90 208 2.0 8.0 0.00 0.00 0.00 54 1016.3
20260831222509 90 176 2.0 5.0 0.00 0.00 0.00 54 1016.3
20260831222009 91 229 2.0 5.0 0.00 0.00 0.00 53 1016.4
20260831221448 91 240 2.0 6.0 0.00 0.00 0.00 53 1016.5
20260831221009 91 216 1.0 6.0 0.00 0.00 0.00 53 1016.7
20260831220448 91 178 2.0 4.0 0.00 0.00 0.00 53 1016.6
20260831215948 92 214 2.0 5.0 0.00 0.00 0.00 51 1016.8
20260831215448 92 229 2.0 5.0 0.00 0.00 0.00 50 1016.8
20260831215009 92 236 1.0 4.0 0.00 0.00 0.00 51 1016.9
20260831214448 92 250 2.0 7.0 0.00 0.00 0.00 49 1016.9
20260831213948 92 251 2.0 7.0 0.00 0.00 0.00 49 1016.9
20260831213448 93 257 2.0 4.0 0.00 0.00 0.00 47 1017.0
20260831212948 93 266 1.0 4.0 0.00 0.00 0.00 49 1017.0
20260831212448 93 217 2.0 7.0 0.00 0.00 0.00 51 1016.9
20260831211948 93 210 2.0 7.0 0.00 0.00 0.00 49 1017.1
20260831211448 93 159 2.0 5.0 0.00 0.00 0.00 52 1017.1
20260831210948 93 177 2.0 5.0 0.00 0.00 0.00 49 1017.1
20260831210509 93 212 2.0 4.0 0.00 0.00 0.00 50 1017.2
20260831210009 93 216 2.0 4.0 0.00 0.00 0.00 50 1017.2
20260831205448 93 230 2.0 5.0 0.00 0.00 0.00 49 1017.2
20260831204948 92 194 1.0 9.0 0.00 0.00 0.00 50 1017.4
20260831204448 92 148 1.0 9.0 0.00 0.00 0.00 49 1017.4
20260831203948 92 159 2.0 4.0 0.00 0.00 0.00 49 1017.4
20260831203449 92 199 2.0 7.0 0.00 0.00 0.00 49 1017.4
20260831203009 93 216 2.0 7.0 0.00 0.00 0.00 48 1017.4
20260831202448 93 228 2.0 7.0 0.00 0.00 0.00 48 1017.5
20260831201948 94 252 2.0 6.0 0.00 0.00 0.00 47 1017.5
20260831201448 93 256 2.0 8.0 0.00 0.00 0.00 47 1017.5
20260831200948 93 241 2.0 8.0 0.00 0.00 0.00 46 1017.6
20260831200448 93 238 2.0 8.0 0.00 0.00 0.00 47 1017.7
20260831195948 93 236 2.0 6.0 0.00 0.00 0.00 51 1017.7
20260831195448 93 245 2.0 6.0 0.00 0.00 0.00 49 1017.9
20260831194948 92 257 2.0 6.0 0.00 0.00 0.00 48 1017.9
20260831194448 92 227 2.0 8.0 0.00 0.00 0.00 53 1018.0
20260831193949 92 194 2.0 8.0 0.00 0.00 0.00 50 1018.1
20260831193448 92 177 2.0 6.0 0.00 0.00 0.00 51 1018.1
20260831192948 92 232 2.0 6.0 0.00 0.00 0.00 52 1018.2
20260831192448 91 265 2.0 7.0 0.00 0.00 0.00 51 1018.2
20260831191948 92 259 2.0 7.0 0.00 0.00 0.00 52 1018.2
20260831191448 91 249 2.0 5.0 0.00 0.00 0.00 54 1018.2
20260831190948 92 250 2.0 12.0 0.00 0.00 0.00 52 1018.3